Location: Roland
(31.1349°N, 85.4372°W)
Time: 07:51:14
(UTC+00:00)

Vanguard 2 Rocket - Pass Details

Date: 18 April 2021
Orbit: 554 x 3326 km, 32.9° (Epoch: 16 May)

Event Time Altitude Azimuth Distance (km) Brightness Sun altitude
Rises 02:18:50 0° 288° (WNW) 6,828 12.6 -25.9°
Reaches altitude 10° 02:24:17 10° 282° (WNW) 5,451 11.7 -26.8°
Maximum altitude 02:37:30 39° 221° (SW) 2,577 9.1 -29.2°
Enters shadow 02:40:55 31° 184° (S) 2,549 8.8 -29.8°
